This is the latest recevied weather packets stored in our database for station/object LU3MCV-13. If no packets are shown the sender has not sent any weather packets the latest 10 day(s).
| Time | Temp. | Humidity | Pressure | Rain* | Wind** | Luminosity | Snow |
|---|---|---|---|---|---|---|---|
| 1788144349 | 61° F | 13% | 698.1 mmHg | - | - | - | - |
| 1788143449 | 59° F | 13% | 697.9 mmHg | - | - | - | - |
| 1788142549 | 61° F | 13% | 697.9 mmHg | - | - | - | - |
| 1788141649 | 61° F | 13% | 697.9 mmHg | - | - | - | - |
| 1788140749 | 61° F | 13% | 697.9 mmHg | - | - | - | - |
| 1788139849 | 61° F | 13% | 697.6 mmHg | - | - | - | - |
| 1788138949 | 61° F | 13% | 697.6 mmHg | - | - | - | - |
| 1788138049 | 63° F | 13% | 697.6 mmHg | - | - | - | - |
| 1788136249 | 64° F | 8% | 697.6 mmHg | - | - | - | - |
| 1788135349 | 64° F | 8% | 697.7 mmHg | - | - | - | - |
| 1788134449 | 64° F | 8% | 697.6 mmHg | - | - | - | - |
| 1788133549 | 64° F | 8% | 697.6 mmHg | - | - | - | - |
| 1788132649 | 64° F | 8% | 697.4 mmHg | - | - | - | - |
| 1788131748 | 66° F | 8% | 697.1 mmHg | - | - | - | - |
| 1788130849 | 66° F | 8% | 697.1 mmHg | - | - | - | - |
| 1788129948 | 66° F | 8% | 697 mmHg | - | - | - | - |
| 1788129049 | 68° F | 8% | 697 mmHg | - | - | - | - |
| 1788128148 | 70° F | 8% | 697 mmHg | - | - | - | - |
| 1788127248 | 70° F | 8% | 696.9 mmHg | - | - | - | - |
| 1788126349 | 72° F | 8% | 696.9 mmHg | - | - | - | - |
| 1788125449 | 73° F | 8% | 696.9 mmHg | - | - | - | - |
| 1788124549 | 73° F | 8% | 696.7 mmHg | - | - | - | - |
| 1788123648 | 72° F | 8% | 696.7 mmHg | - | - | - | - |
| 1788122748 | 75° F | 8% | 696.6 mmHg | - | - | - | - |
| 1788121848 | 75° F | 8% | 696.5 mmHg | - | - | - | - |
* Rain since midnight (hover to see other rain measurements)
** Current wind speed in m/s (hover to see current wind gust speed)